Location: Alumbaugh
(37.5976°N, 83.9299°W)
Time: 13:04:21
(UTC+00:00)

Max Valier Satellite - Visible Passes

Search period start: 27 March 2023 00:00
Search period end: 06 April 2023 00:00
Orbit: 454 x 468 km, 97.2° (Epoch: 26 March)

Date Brightness Start Highest point End Pass type
(mag) Time Alt. Az. Time Alt. Az. Time Alt. Az.
27 Mar ? 01:43:45 10° SSW 01:46:36 24° W 01:49:28 10° NW visible
28 Mar ? 01:11:36 10° S 01:15:00 72° W 01:18:26 10° NNW visible
29 Mar ? 00:40:19 10° SE 00:43:29 37° ENE 00:46:41 10° N visible
30 Mar ? 01:41:55 10° SSW 01:44:49 26° W 01:47:44 10° NW visible
31 Mar ? 01:09:40 10° S 01:13:05 77° W 01:16:31 10° NNW visible
01 Apr ? 00:38:19 10° SE 00:41:27 35° ENE 00:44:36 10° N visible
01 Apr ? 02:13:57 10° WSW 02:14:34 10° W 02:15:10 10° W visible
02 Apr ? 01:39:39 10° SSW 01:42:37 27° W 01:45:36 10° NW visible
03 Apr ? 01:07:21 10° S 01:10:46 83° WSW 01:14:12 10° NNW visible
04 Apr ? 00:35:55 10° SE 00:39:00 32° ENE 00:42:07 10° N visible
04 Apr ? 02:11:00 10° WSW 02:12:05 11° W 02:13:11 10° WNW visible
05 Apr ? 01:36:59 10° SSW 01:40:01 29° W 01:43:04 10° NW visible
